Location: Peebles
(55.6412°N, 3.1714°W)
Time: 08:51:12
(UTC+00:00)

Oscar 19 - Visible Passes

Search period start: 30 November 2022 00:00
Search period end: 10 December 2022 00:00
Orbit: 772 x 790 km, 98.8° (Epoch: 29 November)

Date Brightness Start Highest point End Pass type
(mag) Time Alt. Az. Time Alt. Az. Time Alt. Az.
30 Nov 12.6 03:38:37 10° NNE 03:40:55 24° NE 03:40:55 24° NE visible
30 Nov 11.4 05:17:56 10° N 05:21:27 36° NNW 05:21:27 36° NNW visible
30 Nov 12.4 06:58:57 10° NNW 07:00:57 12° NW 07:01:58 12° NW visible
30 Nov 13.5 16:45:37 10° WSW 16:48:11 14° W 16:50:45 10° NW visible
01 Dec 13.2 03:06:58 10° NE 03:08:20 16° NE 03:08:20 16° NE visible
01 Dec 11.5 04:45:43 10° NNE 04:48:52 38° N 04:48:52 38° N visible
01 Dec 12.0 06:25:58 10° N 06:29:23 18° NW 06:29:23 18° NW visible
02 Dec 12.1 04:13:36 10° NNE 04:16:17 31° NNE 04:16:17 31° NNE visible
02 Dec 11.7 05:53:25 10° N 05:56:49 26° NW 05:56:49 26° NW visible
03 Dec 12.7 03:41:39 10° NNE 03:43:42 22° NE 03:43:42 22° NE visible
03 Dec 11.6 05:21:02 10° N 05:24:14 32° NNW 05:24:14 32° NNW visible
03 Dec 12.4 07:02:08 10° NNW 07:03:58 12° NW 07:04:46 12° NW visible
03 Dec 13.5 16:48:57 10° WSW 16:51:18 13° W 16:53:41 10° NW visible
04 Dec 13.3 03:09:58 10° NE 03:11:08 15° NE 03:11:08 15° NE visible
04 Dec 11.7 04:48:47 10° NNE 04:51:40 34° N 04:51:40 34° N visible
04 Dec 12.1 06:29:05 10° N 06:32:12 18° NW 06:32:12 18° NW visible
05 Dec 12.2 04:16:40 10° NNE 04:19:05 28° NNE 04:19:05 28° NNE visible
05 Dec 11.8 05:56:30 10° N 05:59:37 24° NW 05:59:37 24° NW visible
06 Dec 12.8 03:44:42 10° NNE 03:46:32 21° NE 03:46:32 21° NE visible
06 Dec 11.7 05:24:07 10° N 05:27:03 30° NNW 05:27:03 30° NNW visible
06 Dec 12.4 07:05:19 10° NNW 07:07:00 12° NW 07:07:35 11° NW visible
06 Dec 13.6 16:52:17 10° WSW 16:54:25 12° W 16:56:34 10° WNW visible
07 Dec 13.3 03:13:00 10° NE 03:13:58 14° NE 03:13:58 14° NE visible
07 Dec 11.9 04:51:51 10° NNE 04:54:30 30° N 04:54:30 30° N visible
07 Dec 12.1 06:32:12 10° N 06:35:02 17° NW 06:35:02 17° NW visible
08 Dec 12.3 04:19:44 10° NNE 04:21:56 26° NNE 04:21:56 26° NNE visible
08 Dec 11.9 05:59:36 10° N 06:02:28 23° NNW 06:02:28 23° NNW visible
09 Dec 12.8 03:47:45 10° NNE 03:49:23 20° NE 03:49:23 20° NE visible
09 Dec 11.8 05:27:12 10° N 05:29:55 27° NNW 05:29:55 27° NNW visible
09 Dec 12.5 07:08:31 10° NNW 07:10:01 11° NW 07:10:27 11° NW visible
09 Dec 13.6 16:55:38 10° WSW 16:57:32 12° W 16:59:26 10° WNW visible
